This is the latest recevied weather packets stored in our database for station/object AC4AG. If no packets are shown the sender has not sent any weather packets the latest 10 day(s).
| Time | Temp. | Humidity | Pressure | Rain* | Wind** | Luminosity | Snow |
|---|---|---|---|---|---|---|---|
| 1777729736 | 10° C | 62% | 1017.3 hPa | 0 mm | - | 427 W/m² | - |
| 1777729433 | 10° C | 65% | 1017 hPa | 0 mm | - | 414 W/m² | - |
| 1777729129 | 10.56° C | 68% | 1017 hPa | 0 mm | - | 413 W/m² | - |
| 1777728826 | 10° C | 70% | 1017.1 hPa | 0 mm | - | 384 W/m² | - |
| 1777728523 | 9.44° C | 73% | 1017.1 hPa | 0 mm | - | 357 W/m² | - |
| 1777728220 | 8.89° C | 75% | 1017.1 hPa | 0 mm | - | 345 W/m² | - |
| 1777727917 | 8.89° C | 75% | 1017 hPa | 0 mm | - | 332 W/m² | - |
| 1777727614 | 8.89° C | 77% | 1017.1 hPa | 0 mm | - | 312 W/m² | - |
| 1777727311 | 8.33° C | 77% | 1017 hPa | 0 mm | - | 296 W/m² | - |
| 1777727009 | 8.33° C | 77% | 1017.1 hPa | 0 mm | - | 275 W/m² | - |
| 1777726706 | 8.33° C | 79% | 1017 hPa | 0 mm | - | 264 W/m² | - |
| 1777726403 | 7.78° C | 80% | 1017 hPa | 0 mm | - | 247 W/m² | - |
| 1777726100 | 7.78° C | 81% | 1017 hPa | 0 mm | - | 230 W/m² | - |
| 1777725797 | 7.78° C | 81% | 1017 hPa | 0 mm | - | 214 W/m² | - |
| 1777725494 | 7.78° C | 82% | 1017 hPa | 0 mm | - | 200 W/m² | - |
| 1777725192 | 7.22° C | 84% | 1017 hPa | 0 mm | - | 184 W/m² | - |
| 1777724888 | 7.22° C | 85% | 1016.8 hPa | 0 mm | - | 169 W/m² | - |
| 1777724584 | 6.11° C | 91% | 1016.8 hPa | 0 mm | - | 149 W/m² | - |
| 1777724283 | 6.11° C | 92% | 1017 hPa | 0 mm | - | 143 W/m² | - |
| 1777723980 | 5.56° C | 94% | 1016.8 hPa | 0 mm | - | 104 W/m² | - |
| 1777723677 | 6.11° C | 94% | 1017 hPa | 0 mm | - | 70 W/m² | - |
| 1777723373 | 5.56° C | 98% | 1016.8 hPa | 0 mm | - | 120 W/m² | - |
| 1777723071 | 5° C | 98% | 1016.8 hPa | 0 mm | - | 100 W/m² | - |
| 1777722768 | 5° C | 97% | 1016.7 hPa | 0 mm | - | 40 W/m² | - |
| 1777722464 | 5.56° C | 95% | 1016.7 hPa | 0 mm | - | 38 W/m² | - |
* Rain latest hour (hover to see other rain measurements)
** Current wind speed in m/s (hover to see current wind gust speed)